[[{"header":{"parameterUnit":"m.s-1","parameterCategory":1,"la1":30.2991,"la2":30.254,"lo1":-89.0895,"lo2":-89.0444,"dy":0.0017,"dx":0.0017,"nx":28,"ny":28,"refTime":"2025-01-08T09:00:00:Z","depth":0,"parameterNumber":2,"parameterNumberName":"U-component_of_WINDS"},"data":[0,0,0,0,0,0,0,0,0,0,0,0,0,0,0,0,0,0,0,0,0,0,0,0,0,0,0,0,0,0,0,0,0,0,0,0,0,0,0,0,0,0,0,0,0,0,0,0,0,0,0,0,0,0,0,0,0,0,1.4695,1.4695,0,1.47,1.47,1.47,1.4685,1.4685,1.4684,1.4684,1.4688,1.4689,1.469,0,0,0,0,0,0,0,0,0,0,0,0,0,1.4674,1.4675,1.4695,1.4695,1.4695,1.47,1.47,1.47,1.4685,1.4685,1.4684,1.4684,1.4688,1.4689,1.469,0,0,0,0,0,0,0,0,0,0,0,0,0,1.4682,1.4675,1.4695,1.4689,1.4688,1.47,1.47,1.47,1.4685,1.4685,1.4684,1.4683,1.4688,1.4689,1.469,1.4708,0,0,1.4692,1.4692,0,0,0,0,0,0,0,0,1.4681,1.4682,1.469,1.4689,1.4688,1.4691,1.4694,1.4703,1.4686,1.4686,1.4684,1.4683,1.469,1.4691,1.4693,1.4708,1.4709,1.4692,1.4693,1.4693,1.4693,0,0,0,0,0,0,0,1.4681,1.4682,1.4697,1.469,1.4689,1.4686,1.4686,1.4696,1.4692,1.4686,1.4685,1.4686,1.469,1.4692,1.4693,1.4709,1.4692,1.4693,1.4693,1.4694,1.4741,1.4741,0,0,0,0,0,0,1.4681,1.4682,1.4697,1.4697,1.4683,1.4687,1.4687,1.4691,1.4692,1.4691,1.4687,1.4685,1.4691,1.4692,1.4693,1.4715,1.4693,1.4694,1.4694,1.474,1.4741,1.4742,0,0,0,0,0,0,1.4681,1.4683,1.4697,1.4689,1.4691,1.4688,1.4693,1.4692,1.4694,1.4692,1.4691,1.469,1.4691,1.4692,1.4705,1.4715,1.4694,1.4695,1.4739,1.474,1.4741,1.4759,0,0,0,0,0,0,1.468,1.4682,1.4689,1.469,1.4691,1.4708,1.4693,1.4692,1.4696,1.4694,1.4695,1.4694,1.469,1.4704,1.4706,1.4716,1.4696,1.4738,1.474,1.4741,1.4758,1.4761,1.4763,0,0,0,0,0,1.4679,1.4694,1.469,1.4691,1.47,1.4709,1.471,1.4705,1.4697,1.4703,1.4702,1.4694,1.4714,1.4705,1.4707,1.4718,1.4737,1.4739,1.4741,1.4756,1.476,1.4763,0,0,0,0,0,0,1.4694,1.4693,1.4689,1.4704,1.4707,1.4706,1.4715,1.4709,1.4714,1.4712,1.4706,1.4706,1.472,1.472,1.4711,1.4736,1.4724,1.4727,1.4735,1.4739,1.4742,1.4741,1.4696,0,0,0,0,0,1.4699,1.4707,1.4706,1.4719,1.4721,1.4718,1.4721,1.4717,1.472,1.4721,1.4721,1.4723,1.473,1.4735,1.4741,1.4758,1.4758,1.4767,1.4769,1.4772,1.4773,1.4783,1.4787,1.4747,1.4747,1.4747,0,0,1.4709,1.471,1.4715,1.4722,1.4724,1.4732,1.4719,1.4727,1.4733,1.4722,1.4734,1.4735,1.4737,1.4753,1.4759,1.4753,1.4785,1.4774,1.4776,1.4776,1.4785,1.4789,1.4792,1.4749,1.4748,1.4748,0,0,1.4732,1.4733,1.4744,1.4747,1.475,1.4748,1.4751,1.4752,1.4752,1.4764,1.4756,1.4764,1.4775,1.4778,1.478,1.4806,1.4799,1.4809,1.4823,1.4833,1.4836,1.4839,1.4848,1.4851,1.4811,1.4811,1.4811,0,1.4744,1.4755,1.4751,1.4761,1.4764,1.4756,1.4767,1.477,1.4774,1.4777,1.4771,1.4786,1.4787,1.4803,1.481,1.4812,1.4816,1.4808,1.4836,1.4839,1.4841,1.485,1.4853,1.4812,1.4812,1.4811,1.4811,0,1.477,1.4779,1.4788,1.4793,1.4798,1.4809,1.4806,1.4811,1.4808,1.4807,1.482,1.4822,1.4828,1.4832,1.4828,1.4848,1.4844,1.4837,1.4824,1.4846,1.4854,1.4857,1.4813,1.4813,1.4812,1.4812,0,0,1.48,1.4804,1.4807,1.481,1.4814,1.482,1.4831,1.4838,1.4843,1.4847,1.4856,1.4868,1.4861,1.4865,1.4861,1.487,1.489,1.4862,1.4862,1.4866,1.4912,1.4917,1.4921,1.4886,1.4887,1.4887,1.4912,0,1.4822,1.484,1.4837,1.4855,1.4863,1.4856,1.4866,1.4869,1.4869,1.4877,1.4877,1.4884,1.4876,1.4878,1.4886,1.4886,1.4899,1.4884,1.4894,1.4895,1.4893,1.4925,1.493,1.4952,1.4915,1.4915,1.4916,0,1.4849,1.4855,1.4874,1.4878,1.4881,1.4889,1.4896,1.4903,1.4907,1.4907,1.4912,1.4907,1.4919,1.4907,1.4923,1.4913,1.4917,1.4918,1.4919,1.4919,1.4906,1.4925,1.496,1.4963,1.4921,1.492,1.492,0,1.4869,1.4882,1.4895,1.4897,1.4902,1.4908,1.491,1.4914,1.4919,1.4925,1.4928,1.4935,1.4939,1.4945,1.4943,1.4935,1.496,1.4948,1.4959,1.4959,1.4963,1.4963,1.4998,1.4968,1.4968,1.4968,1.4968,0,1.4893,1.4905,1.4904,1.4911,1.4925,1.4922,1.4935,1.4937,1.494,1.4949,1.4943,1.4951,1.4949,1.4957,1.4956,1.4969,1.4971,1.4971,1.497,1.4971,1.4971,1.4972,1.497,1.4969,1.4969,1.4968,1.4968,0,1.4916,1.4916,1.493,1.4933,1.4935,1.4944,1.4947,1.4955,1.4956,1.4966,1.4969,1.4969,1.4979,1.4978,1.4988,1.4987,1.5004,1.5002,1.5002,1.5001,1.5013,1.5011,1.505,1.5054,1.5022,1.5022,1.5022,0,1.4931,1.494,1.4945,1.495,1.4953,1.4962,1.4967,1.4965,1.4971,1.4977,1.4984,1.4994,1.5,1.5016,1.5017,1.5026,1.5023,1.5036,1.5024,1.5025,1.5023,1.5022,1.5023,1.5038,1.5038,1.5039,1.5039,0,1.4957,1.4957,1.4965,1.4973,1.4979,1.4985,1.4991,1.4996,1.4995,1.5001,1.5011,1.5017,1.5028,1.5037,1.5045,1.5048,1.5043,1.5043,1.5046,1.5046,1.5046,1.5046,1.5008,1.5042,1.5041,1.5041,1.5041,1.5041,1.4976,1.4984,1.4989,1.4998,1.5003,1.5008,1.5016,1.5018,1.5026,1.5035,1.5034,1.5045,1.505,1.5061,1.5065,1.5073,1.5069,1.5073,1.5074,1.5075,1.5076,1.5045,1.5075,1.5075,1.5075,1.5075,1.5075,0,1.5002,1.5005,1.5014,1.5022,1.5029,1.5026,1.5032,1.5038,1.5048,1.5054,1.5061,1.5073,1.5082,1.5085,1.5094,1.5101,1.5099,1.5103,1.5102,1.5103,1.508,1.5076,1.5104,1.5104,1.5104,1.5104,1.5104,1.5104,1.5016,1.5029,1.503,1.5046,1.5049,1.506,1.5064,1.507,1.5074,1.5088,1.5095,1.5098,1.5102,1.5112,1.512,1.5121,1.5124,1.5129,1.5129,1.5107,1.5104,1.5101,1.5098,1.513,1.513,1.5151,1.5151,1.5152]},{"header":{"parameterUnit":"m.s-1","parameterCategory":1,"la1":30.2991,"la2":30.254,"lo1":-89.0895,"lo2":-89.0444,"dy":0.0017,"dx":0.0017,"nx":28,"ny":28,"refTime":"2025-01-08T09:00:00:Z","depth":0,"parameterNumber":3,"parameterNumberName":"V-component_of_WINDS"},"data":[0,0,0,0,0,0,0,0,0,0,0,0,0,0,0,0,0,0,0,0,0,0,0,0,0,0,0,0,0,0,0,0,0,0,0,0,0,0,0,0,0,0,0,0,0,0,0,0,0,0,0,0,0,0,0,0,0,0,-5.1196,-5.1198,0,-5.1339,-5.1341,-5.1342,-5.1296,-5.1293,-5.129,-5.1287,-5.143,-5.1436,-5.1443,0,0,0,0,0,0,0,0,0,0,0,0,0,-5.0879,-5.0885,-5.1196,-5.1198,-5.12,-5.1339,-5.1341,-5.1343,-5.1296,-5.1293,-5.1289,-5.1285,-5.1428,-5.1435,-5.1443,0,0,0,0,0,0,0,0,0,0,0,0,0,-5.1019,-5.0887,-5.1196,-5.1193,-5.1194,-5.1339,-5.1341,-5.1343,-5.1297,-5.1293,-5.1288,-5.1284,-5.1425,-5.1435,-5.1445,-5.1599,0,0,-5.1475,-5.1479,0,0,0,0,0,0,0,0,-5.1011,-5.103,-5.1192,-5.1194,-5.1195,-5.1295,-5.1281,-5.1429,-5.1298,-5.1258,-5.1287,-5.1281,-5.1388,-5.1401,-5.1438,-5.1605,-5.1611,-5.1476,-5.1482,-5.1486,-5.1489,0,0,0,0,0,0,0,-5.1001,-5.1024,-5.1252,-5.1194,-5.1196,-5.1184,-5.1199,-5.1309,-5.1347,-5.1261,-5.1258,-5.1276,-5.1388,-5.1428,-5.1441,-5.1614,-5.1476,-5.1485,-5.1491,-5.1495,-5.1913,-5.1918,0,0,0,0,0,0,-5.0991,-5.1016,-5.1248,-5.1257,-5.109,-5.1193,-5.121,-5.1268,-5.1346,-5.1354,-5.128,-5.1273,-5.1414,-5.1429,-5.1446,-5.1631,-5.1486,-5.1496,-5.1501,-5.1908,-5.1914,-5.192,0,0,0,0,0,0,-5.0984,-5.1012,-5.1242,-5.1136,-5.1164,-5.1204,-5.1269,-5.1273,-5.1313,-5.136,-5.1366,-5.1314,-5.1411,-5.1432,-5.1561,-5.1635,-5.15,-5.1509,-5.1902,-5.191,-5.1917,-5.2002,0,0,0,0,0,0,-5.0975,-5.101,-5.107,-5.1138,-5.117,-5.1356,-5.1274,-5.1279,-5.1331,-5.1324,-5.1394,-5.1401,-5.1409,-5.1546,-5.1571,-5.1646,-5.1517,-5.1896,-5.1906,-5.1915,-5.1993,-5.2012,-5.2028,0,0,0,0,0,-5.0964,-5.1087,-5.1073,-5.1101,-5.1246,-5.1361,-5.1379,-5.1387,-5.1337,-5.1397,-5.1427,-5.1399,-5.1623,-5.156,-5.1587,-5.1667,-5.1891,-5.1903,-5.1914,-5.1985,-5.2008,-5.2028,0,0,0,0,0,0,-5.1026,-5.1096,-5.1081,-5.123,-5.129,-5.1353,-5.1428,-5.1411,-5.1485,-5.1475,-5.148,-5.1497,-5.1629,-5.1661,-5.1589,-5.182,-5.1749,-5.1767,-5.1794,-5.1817,-5.1834,-5.1823,-5.1525,0,0,0,0,0,-5.1058,-5.1146,-5.1202,-5.1328,-5.1359,-5.1389,-5.1439,-5.144,-5.1501,-5.1526,-5.1566,-5.1626,-5.171,-5.1765,-5.1845,-5.1997,-5.2011,-5.2066,-5.2083,-5.2097,-5.2112,-5.2194,-5.2219,-5.1958,-5.1958,-5.1957,0,0,-5.1122,-5.1172,-5.1227,-5.1342,-5.1388,-5.1479,-5.141,-5.1509,-5.1576,-5.1541,-5.1665,-5.1697,-5.1764,-5.1905,-5.197,-5.1936,-5.2187,-5.2112,-5.2123,-5.213,-5.2209,-5.2233,-5.2255,-5.1966,-5.1964,-5.1963,0,0,-5.1287,-5.1334,-5.1444,-5.1492,-5.1563,-5.1582,-5.1609,-5.1675,-5.1694,-5.182,-5.1795,-5.1874,-5.2019,-5.2068,-5.2111,-5.2294,-5.2271,-5.232,-5.2411,-5.2492,-5.2512,-5.253,-5.2595,-5.2618,-5.2335,-5.2335,-5.2335,0,-5.1358,-5.1495,-5.1502,-5.1603,-5.1654,-5.1627,-5.1738,-5.1784,-5.1878,-5.1913,-5.1874,-5.2055,-5.2098,-5.225,-5.2295,-5.2332,-5.2361,-5.2312,-5.2509,-5.2527,-5.2544,-5.2606,-5.263,-5.2341,-5.234,-5.2339,-5.2339,0,-5.1579,-5.1674,-5.1754,-5.1846,-5.1906,-5.2011,-5.2033,-5.2092,-5.2088,-5.2111,-5.2238,-5.2289,-5.2379,-5.2415,-5.2411,-5.2567,-5.2544,-5.2507,-5.2436,-5.2575,-5.2632,-5.2656,-5.2348,-5.2346,-5.2345,-5.2343,0,0,-5.1786,-5.1881,-5.1911,-5.1952,-5.2029,-5.2102,-5.2205,-5.2294,-5.2345,-5.241,-5.2496,-5.262,-5.2586,-5.2636,-5.2637,-5.2708,-5.2849,-5.2662,-5.2664,-5.2694,-5.3022,-5.3049,-5.3076,-5.2834,-5.2838,-5.2842,-5.3016,0,-5.1957,-5.214,-5.2149,-5.2316,-5.2403,-5.2379,-5.2469,-5.2526,-5.255,-5.2626,-5.2652,-5.2739,-5.2689,-5.2718,-5.2787,-5.2817,-5.2914,-5.2804,-5.2913,-5.2916,-5.2896,-5.3107,-5.3135,-5.3297,-5.3039,-5.3043,-5.3046,0,-5.218,-5.2254,-5.2429,-5.2493,-5.253,-5.2611,-5.2693,-5.2767,-5.283,-5.2842,-5.2898,-5.2889,-5.2994,-5.2921,-5.3064,-5.299,-5.3034,-5.3056,-5.3062,-5.3072,-5.2989,-5.3121,-5.3349,-5.3374,-5.3081,-5.3079,-5.3076,0,-5.2313,-5.2456,-5.2579,-5.2615,-5.2693,-5.2751,-5.2786,-5.2844,-5.2897,-5.2968,-5.3002,-5.3084,-5.3129,-5.3192,-5.3205,-5.3151,-5.3349,-5.3277,-5.3361,-5.3361,-5.3403,-5.34,-5.3641,-5.3433,-5.3433,-5.3433,-5.3432,0,-5.2502,-5.261,-5.264,-5.2716,-5.2835,-5.2844,-5.2962,-5.2993,-5.3046,-5.3126,-5.311,-5.3185,-5.3198,-5.3277,-5.3287,-5.3404,-5.3425,-5.3437,-5.3438,-5.3438,-5.3436,-5.3467,-5.3456,-5.3439,-5.3438,-5.3436,-5.3435,0,-5.2671,-5.2695,-5.2828,-5.2891,-5.291,-5.2995,-5.3049,-5.3121,-5.3143,-5.3245,-5.3269,-5.3304,-5.3395,-5.3414,-5.3522,-5.3529,-5.3668,-5.3659,-5.3647,-5.3646,-5.3729,-5.3721,-5.3998,-5.4034,-5.3803,-5.3805,-5.3807,0,-5.279,-5.2873,-5.2945,-5.2998,-5.3036,-5.3122,-5.3176,-5.3188,-5.3244,-5.3322,-5.3385,-5.3474,-5.3546,-5.3693,-5.3727,-5.3809,-5.3801,-5.3892,-5.3813,-5.381,-5.3801,-5.3796,-5.3804,-5.3907,-5.3909,-5.3911,-5.3913,0,-5.2998,-5.3006,-5.3085,-5.3168,-5.3233,-5.3299,-5.3362,-5.3406,-5.3426,-5.349,-5.3584,-5.364,-5.375,-5.3839,-5.3921,-5.3955,-5.3938,-5.3938,-5.3962,-5.3962,-5.3952,-5.3958,-5.3688,-5.3931,-5.3929,-5.3928,-5.3927,-5.3926,-5.3145,-5.3217,-5.3279,-5.3368,-5.3416,-5.3475,-5.3546,-5.3577,-5.3656,-5.3747,-5.3749,-5.3851,-5.3911,-5.402,-5.406,-5.4139,-5.411,-5.4145,-5.4153,-5.4161,-5.4169,-5.394,-5.4154,-5.4153,-5.4153,-5.4152,-5.4152,0,-5.3352,-5.3391,-5.3472,-5.356,-5.363,-5.3608,-5.3676,-5.3735,-5.3825,-5.3884,-5.3955,-5.4062,-5.4148,-5.4189,-5.4274,-5.4329,-5.4323,-5.4351,-5.4346,-5.4355,-5.419,-5.4161,-5.4354,-5.4354,-5.4354,-5.4354,-5.4354,-5.4354,-5.3467,-5.3588,-5.3603,-5.3748,-5.3785,-5.3886,-5.3927,-5.3981,-5.4027,-5.4148,-5.422,-5.4246,-5.4297,-5.4385,-5.4463,-5.4472,-5.4504,-5.4536,-5.4541,-5.4387,-5.4366,-5.4347,-5.4319,-5.4543,-5.4543,-5.4699,-5.4701,-5.4702]}]]